Total_Precipitation_Accumulation
0.19 0.76 0.69 1.18 1.60 3.47 6.02 5.90 10.69 4.13 8.85 5.55 5.17 6.06 6.26 6.46 4.31 5.16 4.40 4.02 4.70 3.41 3.98 2.34 1.83 1.33 3.30 1.72 0.94 0.79 0.75 1.97 0.67 3.37 3.57 0.91 0.64 0.74 0.98 0.63 0.69 0.70 0.88 0.92 1.36 1.70 2.20 1.59 1.63 1.98 2.41 2.52 1.50 1.57 1.25 1.27 1.45 1.83 2.37 2.04 1.98 2.26 2.14 1.71 2.16 1.66 1.21 1.47 1.19 1.05 1.43 1.38 1.66 1.81 1.72 1.59 1.63 1.84 2.02 1.74 2.37 2.43 2.20 1.80 1.96 2.07 2.00 1.88 1.98 2.04 1.78 1.75 2.02 1.69 1.50 1.71 1.67
0.45 0.51 0.87 1.26 3.20 6.62 6.55 5.00 6.95 5.79 5.10 5.73 5.29 5.31 4.38 5.57 6.94 4.49 3.95 5.09 3.09 3.94 2.99 2.04 1.52 0.81 1.03 1.00 1.02 0.72 0.46 0.56 0.31 0.47 0.51 0.51 0.73 0.70 0.54 0.49 0.49 0.67 0.62 0.74 1.24 1.33 1.91 2.09 1.64 2.51 2.13 2.27 1.74 1.24 1.20 1.67 1.83 1.64 1.79 2.04 1.74 2.12 1.85 1.61 2.01 1.43 1.70 1.42 1.34 1.43 1.79 1.60 1.89 2.31 2.42 2.13 2.27 2.36 1.97 2.21 2.28 2.45 2.54 2.02 2.55 2.39 2.37 1.74 1.89 1.55 1.42 1.78 1.65 2.06 1.95 1.89 1.40
0.49 0.55 1.16 1.47 2.68 3.72 4.84 3.89 8.54 5.71 6.31 5.01 5.46 7.11 5.16 6.31 4.57 3.95 4.49 4.51 3.72 3.53 2.67 2.59 1.34 1.30 1.10 1.11 1.36 1.44 2.00 0.96 0.28 0.23 0.65 0.80 0.96 1.56 0.71 0.57 0.41 0.56 0.82 0.77 0.87 1.63 1.93 2.48 1.39 1.51 1.78 1.80 1.75 1.14 1.05 1.17 1.25 1.78 1.68 1.66 1.87 1.57 1.79 1.58 1.42 1.66 1.59 1.92 1.25 1.30 1.77 1.78 1.93 2.17 2.48 2.38 2.11 2.20 1.85 2.19 2.37 2.41 2.56 2.41 2.56 2.44 2.35 1.95 2.12 2.24 1.64 1.78 1.88 1.79 1.59 1.53 1.47
0.39 0.53 1.36 1.93 4.89 3.44 6.37 5.92 6.44 7.25 5.92 5.14 5.67 4.80 5.75 3.86 3.51 4.77 3.63 3.03 3.07 2.71 2.23 2.34 2.47 1.42 2.23 1.29 1.59 1.00 1.38 2.19 0.77 0.50 0.90 0.87 0.48 0.47 0.58 0.46 0.56 0.88 0.98 0.64 1.68 1.32 1.47 1.01 0.74 1.35 1.55 1.65 1.44 1.06 0.94 1.23 1.43 1.64 1.92 1.78 2.23 1.78 1.95 1.52 1.35 1.97 1.92 1.55 1.39 1.52 1.80 1.81 2.29 2.03 2.06 2.12 2.14 1.89 2.17 1.77 2.21 2.76 2.90 2.41 2.50 2.63 2.27 2.01 2.67 2.34 1.86 1.52 1.41 1.59 1.33 1.32 1.57
0.42 0.50 1.09 2.13 4.08 7.90 6.15 5.92 6.16 4.71 6.08 6.11 6.02 4.23 4.50 4.29 4.31 4.21 2.85 3.29 2.52 3.23 2.18 1.98 1.69 1.56 2.86 2.10 1.89 3.08 2.06 1.03 1.08 0.45 0.28 0.43 0.15 0.32 0.36 0.49 0.58 0.51 0.70 1.08 0.91 1.05 1.14 0.79 0.83 0.96 1.13 1.22 1.16 0.92 0.73 0.89 1.08 1.20 1.43 1.69 2.11 2.53 1.78 1.70 1.39 1.61 2.49 2.46 2.02 1.55 2.00 1.69 2.23 2.12 2.06 2.13 2.26 2.00 2.40 2.48 2.73 2.73 2.73 2.95 2.70 2.80 2.46 2.38 2.58 2.39 1.93 1.63 1.51 1.65 1.69 1.35 1.56
0.48 0.85 1.14 2.37 7.45 3.35 4.88 5.61 5.23 5.24 4.37 5.84 5.17 5.62 4.00 4.86 4.84 2.99 1.84 1.93 1.93 2.49 2.45 1.94 2.40 1.66 2.10 1.54 1.67 1.43 1.23 3.03 0.60 0.40 0.18 0.37 0.25 0.27 0.28 0.29 0.41 0.63 0.89 0.89 1.08 1.00 1.35 0.68 0.69 1.01 0.87 1.24 1.35 1.18 0.68 0.92 0.78 0.91 1.48 1.99 2.27 2.49 1.58 1.98 2.30 2.56 2.81 2.47 2.38 2.37 2.08 2.05 2.01 2.16 2.37 1.86 2.07 2.20 2.43 2.51 2.53 2.85 2.85 2.96 2.86 2.54 3.00 2.90 2.09 1.84 1.77 1.65 1.53 1.53 1.14 1.35 1.42
1.01 1.39 2.87 2.77 3.22 3.77 7.19 5.78 4.39 5.06 4.16 5.71 4.19 3.64 3.00 4.78 4.53 2.90 1.42 1.73 1.03 1.65 1.53 1.41 0.81 1.09 1.66 1.33 0.78 1.08 0.96 0.68 1.41 0.43 0.50 0.19 0.18 0.20 0.25 0.34 0.37 0.67 0.72 1.07 1.10 0.89 0.94 0.56 0.73 0.90 1.28 1.64 1.13 0.84 1.07 0.97 1.19 1.27 1.37 2.13 2.46 2.53 2.48 2.16 2.00 2.51 2.96 2.78 2.45 3.50 2.44 2.56 2.49 2.34 2.76 2.09 2.00 2.08 1.98 2.37 2.64 2.74 2.72 2.52 2.86 2.36 2.66 2.43 2.24 1.85 1.62 1.96 1.62 1.39 1.38 1.41 1.65
0.28 2.45 2.82 3.94 5.50 4.86 6.53 3.73 4.92 4.76 4.79 5.27 3.43 2.85 3.39 4.15 3.15 3.62 2.22 3.71 1.29 2.09 1.17 1.26 1.16 2.37 2.73 1.77 2.59 1.39 0.83 1.15 0.78 0.36 0.63 0.41 0.15 0.21 0.25 0.30 0.49 0.56 0.67 0.60 0.84 0.88 0.76 0.62 0.66 0.71 0.80 1.22 1.15 1.23 1.29 1.37 1.48 1.58 2.12 2.61 2.24 2.31 2.64 2.27 2.39 2.54 3.08 2.79 2.98 3.27 2.79 3.15 3.40 2.94 3.38 2.94 2.53 2.54 2.48 2.13 2.88 2.64 2.62 2.42 2.25 1.94 1.81 2.62 2.34 2.36 1.88 1.52 1.71 1.57 1.13 1.28 1.26
2.07 1.33 2.35 3.35 6.22 4.16 4.36 4.75 4.54 4.76 4.65 5.17 4.08 3.13 3.23 3.34 3.25 3.35 2.91 2.33 1.53 1.72 1.55 1.55 1.77 3.20 2.46 2.11 1.68 1.74 1.39 1.27 0.83 0.71 0.31 0.52 0.26 0.22 0.26 0.36 0.33 0.74 0.62 0.71 0.72 0.88 1.17 0.86 0.66 0.88 1.13 1.30 1.50 1.28 1.55 1.68 1.54 1.87 2.04 2.02 2.08 2.45 1.99 2.20 2.59 2.40 2.74 2.75 3.10 3.80 3.81 3.20 3.91 2.85 3.44 3.01 3.17 2.79 2.52 2.38 3.03 2.49 2.50 2.32 2.00 2.19 1.92 2.43 2.29 2.32 2.04 1.99 1.73 1.50 1.43 1.15 1.18
1.78 1.92 5.63 3.92 3.62 5.18 4.36 3.04 4.35 5.62 4.48 4.45 4.14 3.73 3.14 2.88 3.23 2.65 2.57 2.18 2.82 2.57 2.56 2.04 1.63 3.18 1.45 1.83 1.56 1.83 2.23 1.72 0.93 0.72 0.43 0.58 0.80 0.53 0.24 0.33 0.27 0.53 0.71 0.88 0.88 0.99 0.89 1.20 0.94 0.94 1.38 1.47 1.57 1.52 1.51 1.72 2.13 1.79 1.94 1.70 1.93 1.91 2.13 2.12 2.37 2.67 2.74 3.67 4.19 3.89 4.08 3.20 3.11 3.47 3.11 3.51 2.71 2.57 2.66 2.58 2.81 2.55 2.10 2.20 1.82 1.76 1.90 2.18 2.16 2.09 1.95 1.89 1.58 1.26 1.53 1.45 1.23
3.61 1.89 1.47 4.22 4.52 3.65 4.52 3.98 4.48 4.69 3.99 3.85 3.69 2.71 3.35 2.89 2.50 2.88 2.97 2.65 1.76 2.73 1.49 1.74 1.57 1.83 1.83 1.41 2.88 1.83 2.22 1.56 1.41 1.09 1.28 0.78 0.55 0.54 0.45 0.18 0.30 0.37 0.46 0.64 0.61 0.68 0.89 1.35 1.25 1.28 1.37 1.72 1.76 1.52 1.28 1.58 1.48 1.26 1.60 1.79 2.27 1.95 2.19 2.82 2.69 2.65 2.95 3.66 4.24 3.94 3.80 4.11 4.10 3.36 3.84 3.78 3.65 2.60 2.75 3.01 2.94 2.62 2.29 2.31 1.63 1.49 1.58 1.53 1.98 2.18 1.52 1.33 1.84 1.41 1.53 1.20 1.10
3.13 3.25 4.42 5.23 4.03 4.42 4.75 4.60 5.51 5.72 3.95 3.69 3.61 2.80 2.38 2.39 3.13 2.74 2.80 2.85 2.32 2.42 1.92 1.40 1.78 1.90 1.70 1.41 1.54 2.72 1.82 2.00 1.24 1.09 0.83 0.74 0.46 0.67 0.39 0.24 0.27 0.32 0.32 0.46 0.61 0.97 0.93 1.58 1.66 1.90 1.67 1.74 2.28 1.84 1.58 1.60 1.58 1.49 1.82 2.53 2.38 2.37 2.53 3.00 3.00 2.63 3.04 3.80 4.08 3.86 3.94 3.94 3.65 4.16 3.83 3.81 3.88 3.25 3.58 2.84 2.99 3.06 2.29 2.11 1.91 1.26 1.43 1.66 1.61 1.75 1.67 1.28 1.30 1.60 1.17 1.07 0.96
2.10 1.33 4.42 3.75 3.20 4.29 3.87 4.53 5.14 5.10 4.99 4.53 3.53 3.05 2.79 2.47 2.66 2.62 2.83 1.70 1.78 2.75 1.94 1.91 1.27 1.85 1.74 1.99 2.10 2.62 2.65 1.56 1.05 0.64 0.53 0.82 0.61 0.52 0.23 0.24 0.60 0.62 0.39 0.56 0.56 0.73 0.84 1.15 1.63 2.15 2.39 2.16 2.05 2.06 2.12 1.92 1.94 2.24 2.26 2.33 2.59 2.93 2.96 2.45 2.98 2.84 3.67 3.95 4.73 4.35 3.68 3.42 3.34 3.39 3.95 3.14 3.66 3.15 3.14 2.68 3.05 2.67 2.29 2.60 1.88 1.31 1.62 1.49 1.83 1.91 1.70 1.37 1.61 1.17 0.95 1.00 0.84
0.67 1.52 3.15 4.31 2.97 4.18 3.68 4.67 4.09 5.74 5.76 4.42 3.11 2.97 2.36 2.03 2.02 1.97 1.77 2.15 1.80 2.53 0.67 1.08 1.31 1.54 0.98 0.69 2.81 3.05 1.80 1.72 0.80 0.67 0.39 0.50 0.31 0.52 0.18 0.24 0.70 0.78 0.60 0.38 0.75 0.78 1.04 1.14 1.67 1.89 2.11 2.48 2.93 2.36 2.43 2.15 2.60 2.48 3.01 2.59 3.10 3.45 3.60 3.11 3.19 2.97 3.43 3.00 3.37 3.79 4.16 3.94 3.77 3.48 3.81 3.81 3.97 3.50 3.13 2.69 2.67 2.64 2.42 2.60 2.48 2.08 1.88 1.63 1.58 1.90 1.86 1.31 1.27 1.02 0.95 1.03 1.33
0.46 0.73 2.84 2.29 3.39 2.32 3.05 5.36 5.67 3.82 6.00 4.61 2.45 2.34 2.15 1.84 1.86 1.62 1.85 2.13 1.51 1.07 0.74 0.54 0.75 3.61 1.79 2.42 2.15 2.22 1.69 1.44 0.79 0.49 0.32 0.67 0.41 0.61 0.41 0.39 0.34 0.41 0.70 0.54 0.78 1.21 1.03 1.08 1.20 1.61 1.99 2.13 2.20 2.40 3.20 3.07 2.59 2.94 2.86 3.20 3.39 3.19 4.12 4.15 3.79 4.81 3.94 3.54 3.85 3.54 4.24 4.68 4.95 5.02 4.59 4.40 4.44 3.99 3.35 3.06 2.90 2.82 3.25 2.75 3.03 2.84 2.60 2.27 2.58 1.87 1.50 1.41 0.93 1.12 1.38 1.13 1.57
0.21 0.92 2.04 3.72 3.45 2.57 2.73 3.46 3.29 4.78 5.00 4.74 3.20 2.28 2.46 2.22 1.97 1.61 1.54 1.20 0.70 0.88 0.98 1.52 0.97 2.11 1.56 2.05 1.20 0.89 0.84 0.84 0.56 0.87 0.91 0.95 0.94 0.99 0.78 0.59 0.57 0.48 0.51 0.55 0.94 0.93 0.92 1.22 1.39 1.50 1.51 1.69 2.52 2.78 2.70 3.17 2.80 3.36 3.13 3.66 3.25 3.81 4.04 4.08 4.53 4.86 5.36 4.90 4.57 4.26 4.49 5.08 5.19 4.18 5.05 3.98 4.94 4.60 3.83 3.36 3.05 2.89 3.13 2.78 3.38 3.05 3.19 2.57 2.93 1.85 1.69 1.49 1.58 2.03 1.75 1.95 2.14
0.22 1.01 2.53 2.57 4.15 3.07 4.34 4.67 2.37 5.47 3.17 4.06 2.03 2.15 2.54 1.62 1.13 1.89 1.10 1.11 1.35 0.54 0.88 0.62 1.37 1.09 1.54 1.63 0.99 0.67 0.46 0.62 0.48 0.39 0.51 0.72 0.82 1.09 1.04 0.93 0.89 0.74 1.03 0.92 0.96 1.16 1.61 1.18 1.57 1.69 1.78 1.85 2.16 2.13 2.63 2.93 2.49 2.80 3.38 3.95 4.33 4.94 4.62 4.67 4.65 5.59 6.47 5.45 5.32 5.60 4.68 4.32 4.71 4.22 4.05 4.35 4.41 4.01 3.71 3.90 3.36 2.69 2.47 3.43 3.32 3.66 2.77 3.01 2.62 2.72 2.39 2.10 2.19 2.11 2.64 3.02 2.38
0.34 1.80 1.61 2.49 2.52 2.80 3.57 4.19 4.01 2.79 3.50 2.70 2.18 2.09 2.53 1.84 1.12 1.55 0.70 1.06 1.04 0.61 0.95 0.74 0.90 1.16 1.19 0.85 0.70 0.52 0.26 0.23 0.17 0.20 0.18 0.38 0.43 0.72 0.76 0.82 0.64 0.90 0.97 1.08 0.74 1.11 0.81 1.47 1.12 1.32 1.57 1.68 2.03 1.83 1.81 2.28 2.99 3.12 3.27 4.32 4.36 4.96 5.22 4.76 4.80 5.08 5.34 5.15 6.30 5.51 5.50 5.49 5.00 4.69 5.05 5.25 4.90 3.82 4.26 4.04 3.58 2.93 3.23 3.30 3.35 3.63 2.81 3.20 2.68 2.73 2.79 2.85 2.82 2.57 2.83 2.54 2.25
0.45 0.82 1.78 2.66 1.79 1.57 1.92 1.95 3.35 3.56 2.47 2.28 2.28 1.85 2.19 2.23 0.81 1.12 2.31 1.40 1.05 0.78 1.18 1.34 1.04 0.95 0.91 0.79 0.68 0.54 0.24 0.54 0.69 0.55 0.64 0.75 0.48 0.47 1.13 0.88 1.47 1.40 1.32 0.81 0.85 0.93 0.77 1.20 0.84 1.29 1.56 1.79 1.73 1.84 1.63 2.26 2.49 3.15 4.39 3.57 4.38 4.97 4.64 3.89 4.30 4.30 4.36 4.41 4.60 5.06 5.88 4.76 4.31 4.29 4.53 3.82 4.42 3.79 2.54 3.28 3.47 3.54 4.10 3.44 3.08 3.74 3.66 3.46 2.55 2.32 2.29 2.69 2.88 3.00 2.52 2.47 1.79
0.34 0.67 2.13 2.52 1.12 1.69 1.29 2.73 2.73 3.14 2.36 2.11 2.20 1.42 2.24 1.66 1.95 0.83 1.51 1.52 1.40 1.40 1.54 0.96 1.53 1.42 1.01 0.97 0.74 0.56 0.38 0.45 0.50 0.84 0.93 1.33 1.81 1.15 1.53 1.11 1.25 1.38 1.36 1.70 1.33 1.35 1.30 1.19 1.22 2.26 3.14 2.58 1.95 2.69 2.48 3.03 3.19 3.96 3.72 3.02 3.70 4.34 4.44 4.12 4.73 4.09 4.64 4.59 4.63 4.70 4.49 3.80 3.99 4.53 3.23 3.69 4.03 3.33 3.33 3.41 3.70 3.38 3.71 3.05 2.96 2.89 2.66 2.77 2.24 1.90 2.05 2.00 2.37 3.14 3.17 2.70 1.95
1.11 0.61 1.18 2.29 1.01 1.33 1.48 2.55 2.93 2.58 2.42 2.97 1.94 1.86 1.83 1.48 1.64 1.35 1.18 1.88 1.54 1.85 1.18 1.88 2.06 1.65 0.83 1.00 0.70 0.59 0.56 0.46 0.89 0.91 0.61 0.72 1.30 1.56 1.77 1.59 1.40 1.02 1.16 1.12 1.44 1.30 1.80 1.59 1.76 1.93 1.86 1.94 1.86 2.34 2.31 2.65 3.06 3.57 4.56 4.38 3.68 3.58 3.61 3.27 3.51 3.78 3.78 3.42 3.70 4.32 3.32 3.29 2.92 3.68 3.84 4.40 4.26 3.32 2.54 2.72 3.37 2.88 2.47 3.05 2.97 3.08 2.85 2.85 2.49 2.78 2.89 2.54 2.23 2.17 2.19 2.13 2.09
0.09 0.48 0.59 0.81 0.83 1.17 1.14 1.33 1.38 1.99 3.07 4.03 2.20 1.74 2.33 1.79 0.85 1.10 1.12 1.92 2.43 1.03 1.31 1.42 1.72 1.73 1.23 0.96 0.82 0.63 0.78 0.49 0.99 0.95 1.09 1.11 1.45 0.91 0.79 1.53 1.32 1.11 0.87 1.21 1.66 1.61 1.38 2.00 1.81 2.60 2.15 2.28 1.89 2.52 3.10 2.55 2.74 3.29 3.41 3.39 3.17 2.77 3.06 3.33 3.16 3.62 3.01 3.57 5.16 3.94 3.64 3.99 3.76 3.34 3.57 2.87 3.14 2.31 2.37 2.81 2.48 3.14 2.86 2.74 2.94 2.71 2.88 3.08 2.51 3.05 2.54 2.18 2.02 2.05 1.60 1.62 1.62
0.81 0.63 0.58 0.57 0.42 0.95 0.52 1.08 1.87 2.50 2.54 2.71 1.68 2.27 1.53 1.42 1.42 1.26 1.01 2.30 1.64 0.99 0.70 1.08 1.09 1.13 1.28 0.86 0.86 0.70 0.53 0.46 0.92 0.86 0.57 1.09 1.14 1.53 1.40 0.99 1.05 1.06 0.77 1.15 1.17 1.61 1.36 2.16 1.64 2.76 2.52 2.00 1.86 2.14 2.38 2.48 2.64 2.07 3.36 2.79 2.51 2.94 2.90 4.32 4.58 3.59 3.66 4.19 4.37 4.29 4.49 4.53 3.69 3.02 2.98 3.42 2.82 2.93 2.43 2.59 2.77 2.89 3.15 2.56 2.50 1.76 2.21 2.73 2.72 2.54 1.83 1.71 2.05 2.17 1.62 1.55 1.72
0.11 0.75 0.44 0.70 0.52 0.23 0.46 1.28 2.19 2.29 2.05 2.55 2.56 1.70 1.76 1.42 1.70 0.89 1.46 0.96 1.07 0.58 0.95 0.90 1.04 1.33 1.36 1.29 0.89 0.90 0.64 0.52 0.79 1.32 0.82 1.55 1.56 1.40 0.92 0.89 0.92 0.78 0.93 1.26 1.45 1.33 1.75 2.20 1.75 2.21 2.52 1.81 2.43 2.09 2.80 2.10 2.11 2.06 2.39 3.03 2.53 3.25 2.87 3.60 3.89 4.59 4.97 4.11 3.88 4.54 4.65 4.56 3.92 3.29 2.86 3.45 3.23 3.32 2.60 2.27 2.87 3.19 3.68 3.23 2.77 3.23 2.75 2.53 2.21 3.08 2.08 2.09 1.93 1.93 1.22 1.41 1.84
0.24 0.28 0.40 0.48 0.62 0.51 0.76 0.98 2.19 3.16 4.65 3.43 2.35 1.83 2.30 1.28 1.12 0.53 1.13 0.62 0.60 0.73 0.26 0.69 0.87 1.37 1.06 0.91 0.91 0.82 0.57 0.52 1.04 0.77 1.09 1.02 1.06 0.90 0.45 0.57 0.84 1.07 1.17 1.14 1.29 1.38 1.86 1.45 1.89 1.68 2.09 1.78 1.82 2.17 1.90 2.34 2.02 1.83 2.14 2.63 2.84 2.95 2.83 3.11 3.08 4.33 5.25 4.49 5.03 5.07 4.65 5.65 5.16 4.21 4.69 4.17 3.56 3.11 3.23 3.79 3.78 3.89 4.11 3.53 3.23 3.53 2.95 2.29 2.23 1.84 2.73 2.27 2.25 1.86 1.55 1.75 1.61
0.07 0.37 0.12 0.35 0.56 0.61 1.11 1.19 1.71 1.80 2.64 3.45 3.41 3.02 2.33 1.37 0.68 1.36 1.41 0.84 0.78 0.35 0.37 0.21 0.45 0.44 0.91 0.94 1.29 0.65 1.06 1.01 0.60 0.88 1.12 0.91 0.80 0.49 0.95 1.05 1.26 1.48 1.33 1.22 1.26 1.83 1.87 1.52 1.48 1.44 1.72 1.85 1.97 1.95 1.89 2.42 2.58 2.35 2.43 2.82 2.81 3.18 3.22 3.05 3.17 3.19 4.44 5.08 5.10 5.97 6.23 6.19 4.13 4.11 3.39 4.10 4.01 3.56 3.12 2.92 2.90 2.86 3.23 3.18 3.92 3.04 3.00 2.90 2.43 2.28 2.25 1.75 1.50 2.01 1.38 1.40 1.56
0.02 0.12 0.45 0.49 1.00 0.74 1.16 1.02 1.16 1.96 2.18 2.77 4.20 3.60 2.97 1.38 0.72 1.46 1.28 0.43 0.36 0.59 0.20 0.19 0.69 0.68 0.54 0.56 0.97 0.64 0.94 1.18 1.64 0.87 0.74 0.66 0.63 0.73 0.89 1.00 1.02 0.98 0.99 1.27 1.40 1.72 2.07 2.18 2.04 1.47 1.33 1.16 1.68 1.77 2.08 2.22 2.77 2.63 2.16 2.53 2.85 2.73 3.19 3.11 3.35 3.16 3.17 5.09 4.78 4.96 5.30 5.39 4.22 4.49 3.36 2.99 3.22 3.42 3.13 3.06 2.79 3.04 3.56 3.23 3.61 4.20 3.34 2.57 2.64 2.71 2.82 2.73 1.80 1.87 1.60 2.14 1.11
0.04 0.07 0.34 0.61 0.73 0.73 1.04 1.80 1.19 1.97 2.71 2.87 6.20 4.92 3.25 2.49 1.20 1.50 0.82 0.42 0.61 0.68 0.26 0.26 0.16 0.29 0.46 0.57 0.98 1.34 0.82 0.43 0.93 0.60 0.88 0.90 0.55 0.95 0.84 1.06 1.33 1.12 1.81 1.36 1.41 1.31 1.23 1.36 1.98 2.02 2.41 1.42 1.36 1.50 1.77 1.49 2.71 2.87 2.07 2.56 2.26 2.14 2.66 1.95 2.73 2.65 3.00 4.69 3.99 5.10 5.89 4.02 3.36 3.02 2.79 2.94 2.83 3.05 3.02 3.78 3.64 3.48 3.19 3.28 2.85 3.77 4.31 3.11 2.77 3.01 2.46 3.13 2.27 1.69 1.41 1.57 2.27
0.02 0.18 0.72 0.96 1.17 1.26 1.48 1.77 2.25 2.44 2.07 2.90 4.09 4.05 4.64 5.19 2.49 1.21 0.74 0.44 0.46 0.59 0.25 0.75 0.53 0.44 0.40 0.50 0.66 0.70 1.25 0.44 0.90 0.47 0.85 0.85 1.15 1.44 1.17 1.03 1.34 1.77 2.38 1.77 1.24 1.60 1.45 1.04 1.14 1.73 1.64 1.43 1.74 1.84 1.93 1.58 1.81 1.89 1.86 1.76 1.13 1.20 2.46 2.37 2.64 2.69 2.52 4.06 3.61 3.95 4.14 3.94 2.87 2.46 2.57 2.75 3.37 2.83 3.38 3.53 3.25 3.08 2.63 2.88 3.44 3.94 4.46 3.84 3.00 2.30 2.40 2.25 1.90 1.86 1.68 1.43 1.17
0.03 0.07 0.57 0.64 1.07 1.58 1.35 2.10 2.46 2.27 2.81 2.63 2.77 3.41 2.87 3.70 3.67 1.29 0.58 0.64 0.56 0.35 0.53 0.18 0.69 0.68 0.33 0.42 0.59 0.31 0.62 0.53 0.51 0.46 0.67 1.22 1.05 1.80 1.25 1.59 1.48 2.11 2.51 2.14 1.61 1.45 0.94 0.78 0.58 0.79 0.88 1.28 2.06 2.36 1.88 1.56 1.44 1.62 1.78 1.30 1.15 1.62 1.86 1.97 2.52 2.41 2.56 2.90 2.98 2.99 3.64 4.00 3.69 3.47 2.71 3.33 3.46 3.08 3.10 2.91 2.70 2.62 2.34 2.92 3.39 3.86 3.45 3.42 2.93 1.93 2.32 1.76 1.56 1.46 1.24 1.16 1.11
0.35 0.19 0.28 0.85 0.84 2.08 1.34 1.21 1.94 2.08 1.77 1.41 2.03 2.78 2.52 3.52 1.98 1.76 1.41 1.40 0.45 0.58 0.39 0.38 0.51 0.59 0.73 0.50 0.32 0.37 0.29 0.63 0.58 0.63 0.83 0.53 0.94 0.91 1.53 1.84 1.84 2.67 2.05 2.06 1.32 1.00 0.80 1.04 0.65 0.56 0.63 0.83 0.95 1.62 1.48 1.22 0.86 1.25 1.52 1.63 1.43 2.15 2.82 1.74 1.22 2.02 2.19 2.54 3.11 2.51 2.69 3.45 3.63 3.19 3.35 3.55 2.67 2.68 2.61 2.79 2.39 2.29 3.05 3.37 3.71 3.62 3.34 2.55 2.44 2.20 2.43 2.20 1.55 1.38 1.29 0.90 0.87
0.12 0.20 0.78 0.32 0.57 2.56 1.32 0.79 1.59 1.53 1.44 1.49 1.31 2.60 2.81 2.39 1.88 1.34 2.53 2.99 1.13 0.79 0.35 0.20 0.79 0.94 0.39 0.33 0.43 0.27 0.35 0.51 0.68 0.56 0.69 0.70 0.64 0.81 0.91 1.86 2.26 2.29 2.49 2.16 1.69 1.04 1.04 1.37 1.09 1.18 0.92 0.67 1.05 1.74 1.74 1.63 1.70 2.32 2.22 2.29 2.79 2.83 2.12 2.27 1.73 2.28 2.10 2.35 2.48 1.98 2.86 3.44 3.26 3.95 3.50 3.21 2.73 2.55 2.83 2.74 2.34 3.03 2.80 3.29 3.15 3.01 2.79 2.64 2.11 1.68 1.72 2.05 1.34 1.22 1.36 1.07 0.91
0.07 0.12 0.30 0.60 0.49 1.28 1.70 1.72 1.38 1.66 1.88 1.85 2.12 2.96 2.20 1.98 1.80 1.52 1.26 2.05 0.95 0.47 0.49 0.17 0.42 0.46 0.27 0.41 0.17 0.15 0.26 0.15 0.40 0.90 1.36 0.49 0.70 0.40 0.61 1.54 2.14 2.22 1.65 1.73 1.33 1.42 0.95 1.09 1.49 0.96 0.96 1.20 0.92 1.28 1.91 1.92 2.14 2.76 2.49 2.26 2.33 2.63 2.49 1.90 1.41 1.51 1.72 2.54 2.59 2.27 3.04 3.76 3.55 3.44 3.00 2.47 2.53 2.48 2.81 2.61 2.57 2.59 3.27 3.04 2.94 2.80 2.52 2.09 2.53 1.67 1.54 1.70 1.29 1.32 0.96 0.79 0.54
0.22 0.06 0.47 0.93 0.95 0.85 2.12 0.87 1.64 1.74 1.96 2.26 1.05 1.93 1.95 1.07 1.43 1.26 1.28 1.41 0.94 0.30 0.27 0.38 0.89 0.47 0.22 0.22 0.13 0.15 0.37 0.40 0.62 0.75 0.59 0.57 0.70 0.70 0.42 0.73 1.55 1.62 1.49 1.26 1.43 1.05 0.94 1.12 1.19 1.22 1.07 0.58 1.37 1.68 2.21 2.07 2.33 2.59 2.19 1.92 1.76 1.84 2.33 2.88 2.43 2.41 2.11 2.14 1.87 1.96 1.73 2.06 3.46 2.89 3.04 3.00 3.13 2.55 2.63 2.81 2.80 2.48 2.71 2.63 2.77 2.50 2.16 2.70 2.89 2.20 1.53 1.43 1.24 1.19 1.49 0.65 0.87
0.24 0.46 0.31 0.73 0.52 1.01 1.30 0.92 1.33 1.39 1.41 2.13 1.47 1.92 1.83 1.55 0.82 1.44 1.14 1.37 0.96 0.49 0.29 0.70 0.60 0.16 0.24 0.14 0.36 0.58 0.50 0.31 0.37 0.47 0.45 0.37 0.55 0.30 0.59 0.90 0.72 1.30 1.52 1.29 1.21 1.06 1.29 1.59 1.19 1.18 0.85 1.16 1.62 1.77 1.99 1.49 1.55 1.73 1.47 1.34 1.26 1.58 3.22 2.45 2.86 2.15 2.07 2.35 1.77 1.99 2.64 2.93 3.05 2.96 3.45 3.17 3.13 3.37 3.35 2.74 2.68 2.14 2.63 2.57 2.46 2.31 2.65 2.23 2.15 1.80 1.59 1.69 1.04 0.87 0.84 0.71 0.88
0.18 0.35 0.60 0.76 1.09 1.34 1.62 1.05 0.68 0.89 1.64 1.81 2.07 1.85 2.16 1.64 2.10 2.23 2.16 1.05 1.37 0.63 0.79 0.93 0.44 0.38 0.49 0.69 0.53 0.86 0.51 0.68 1.14 0.56 0.33 0.34 0.54 0.52 0.60 0.56 0.83 1.08 1.42 1.51 1.05 1.17 1.73 1.55 1.23 1.07 0.75 0.96 1.32 1.16 1.14 1.18 0.89 1.70 1.39 1.37 0.98 1.23 2.09 2.41 1.42 1.23 2.26 2.33 1.75 2.88 2.27 2.13 2.77 3.15 4.50 4.04 3.34 3.49 2.47 2.37 2.49 1.76 2.04 2.32 2.35 2.08 1.73 2.19 1.79 1.69 1.63 1.71 1.54 0.77 0.82 0.86 0.92
0.04 0.11 0.22 0.77 0.52 0.79 0.82 1.11 0.90 1.49 1.99 1.76 2.58 2.08 2.01 1.61 1.86 2.20 2.65 1.85 1.79 1.29 1.31 1.49 0.78 0.91 1.08 1.41 1.26 0.50 0.52 1.19 0.90 0.70 0.59 0.44 1.25 1.05 1.06 0.96 0.86 0.93 0.91 0.74 0.95 1.56 1.55 1.38 1.52 1.43 1.09 1.49 1.24 1.00 1.36 0.77 0.78 1.30 1.04 0.79 1.14 1.27 1.40 1.16 1.37 1.48 1.89 2.03 2.56 2.69 2.83 2.38 2.41 2.90 2.72 2.75 2.29 2.09 1.80 2.58 1.92 1.84 2.38 2.21 1.87 1.67 1.81 2.13 1.82 1.86 1.97 2.21 1.42 1.10 0.74 1.02 0.95
0.12 0.07 0.32 0.47 0.50 1.00 0.94 1.18 1.27 2.43 1.69 1.97 2.13 2.47 2.81 2.38 2.21 2.26 2.61 1.63 1.47 0.84 0.80 0.92 1.53 0.79 1.56 1.10 1.18 0.82 0.77 0.84 0.92 0.67 1.05 1.04 1.28 1.08 0.86 0.88 1.21 0.86 0.75 0.90 0.98 1.52 1.73 1.68 1.73 1.59 1.23 1.36 1.49 1.56 0.96 1.02 1.33 1.08 1.23 1.44 1.39 0.94 0.80 0.87 0.89 0.97 1.83 2.57 1.64 2.09 1.81 1.67 1.31 1.10 1.56 1.31 1.58 1.98 1.97 1.95 1.87 1.78 1.39 1.63 1.84 1.51 1.93 1.79 1.70 1.73 1.79 1.73 1.60 1.20 1.15 1.10 1.33
0.04 0.12 0.39 0.59 0.48 0.62 0.79 1.67 1.30 2.02 1.57 2.96 2.92 2.82 3.67 3.13 2.65 2.67 2.44 1.50 1.79 1.39 1.15 1.69 0.97 1.13 1.10 1.28 0.75 0.64 0.82 0.79 0.73 1.28 1.24 1.24 1.38 1.15 0.74 0.90 0.92 1.17 1.27 0.96 1.47 1.72 1.45 1.72 1.94 2.06 1.51 1.26 1.09 1.49 1.10 1.14 1.06 1.37 1.38 1.52 1.10 0.88 0.85 0.90 1.03 1.43 1.87 2.01 1.29 1.68 1.72 0.96 1.16 1.04 1.33 1.39 1.06 1.31 2.16 1.51 1.56 1.97 1.58 1.55 1.11 1.29 1.30 1.47 1.55 1.17 1.53 1.88 1.08 1.17 1.00 1.32 1.36
0.02 0.04 0.14 0.23 0.70 0.31 0.72 1.75 1.73 2.80 1.02 3.03 2.41 1.64 3.15 3.84 3.33 3.29 2.56 1.76 2.10 2.54 1.92 1.24 1.73 1.94 1.30 0.98 1.02 0.48 0.50 1.07 1.07 1.22 1.18 2.16 1.43 1.46 1.34 1.30 1.39 0.90 1.30 1.04 1.42 1.73 1.50 1.78 2.03 1.82 1.19 1.04 0.93 1.12 1.06 1.27 1.50 1.69 1.29 1.01 1.55 0.75 0.94 1.00 0.81 1.11 1.44 1.89 1.71 2.27 1.79 1.24 1.58 1.48 0.98 1.11 1.05 1.25 1.29 1.12 1.47 1.29 1.41 1.60 1.37 1.21 1.12 0.98 1.42 1.95 1.76 1.64 1.14 1.14 0.92 0.81 0.88
0.00 0.00 0.02 0.12 0.12 0.34 0.42 0.94 0.48 1.75 1.81 1.26 2.52 3.08 3.39 2.61 3.25 2.46 2.54 1.84 2.74 2.38 2.70 2.15 2.03 1.89 1.43 1.27 0.81 0.89 0.86 0.77 1.60 1.81 2.02 2.20 1.24 1.57 1.31 1.22 1.61 1.37 1.15 1.08 1.25 1.95 1.53 1.61 1.68 1.29 1.21 0.52 0.74 0.90 0.72 1.41 1.58 1.25 1.35 1.03 1.04 1.27 0.73 0.91 1.17 0.99 1.27 1.83 1.91 1.45 2.10 2.09 1.46 1.39 0.83 0.66 1.20 1.06 1.42 1.54 1.41 1.42 1.43 1.13 1.38 1.25 1.07 0.87 0.94 1.07 1.12 1.32 1.51 1.42 0.90 0.60 0.68
0.00 0.00 0.02 0.03 0.03 0.40 0.13 0.21 0.20 0.82 1.60 0.86 0.98 2.17 3.56 1.70 1.88 1.37 1.77 2.17 2.04 2.32 2.32 2.08 1.66 1.49 0.68 0.73 0.66 1.38 1.95 2.20 2.02 1.62 1.87 2.46 1.99 1.57 1.45 1.34 2.03 1.49 1.28 1.71 2.09 1.83 1.34 1.12 1.25 1.29 1.49 0.94 0.44 0.65 1.00 0.62 0.87 1.06 1.44 1.02 1.01 0.76 0.47 0.71 1.10 1.35 0.90 1.83 1.94 1.96 2.26 1.97 1.59 1.63 1.73 1.51 1.07 0.96 1.12 0.96 1.27 1.27 1.50 1.29 1.07 1.07 1.43 0.95 1.10 1.12 0.99 1.08 1.09 1.29 1.65 1.01 0.67
0.00 0.04 0.00 0.00 0.03 0.24 0.20 0.29 0.46 0.75 1.46 1.37 0.67 1.01 2.61 1.89 1.76 1.92 2.00 1.60 2.08 2.75 1.93 1.98 1.95 1.53 0.82 0.83 0.80 1.42 2.90 3.17 2.37 2.72 2.55 2.15 2.12 1.67 1.54 1.29 1.51 1.98 1.70 1.78 1.71 1.69 1.49 1.66 1.56 1.41 1.12 1.15 0.94 1.27 1.10 0.68 1.03 1.04 0.87 1.08 0.90 0.87 0.42 0.75 1.41 1.89 1.73 1.73 2.04 1.95 1.70 1.51 1.33 1.69 1.69 1.32 1.28 1.28 1.21 1.29 1.17 1.05 0.98 1.10 1.01 1.30 1.13 0.72 0.77 0.97 0.95 0.77 0.92 1.12 1.24 0.99 0.80
0.02 0.00 0.02 0.01 0.04 0.08 0.03 0.20 0.40 0.84 0.49 0.94 0.84 0.41 1.52 1.86 1.68 1.32 1.96 1.90 1.85 2.23 1.60 2.29 2.13 1.17 1.26 0.64 1.21 1.94 2.80 3.30 3.70 2.88 2.27 2.24 2.81 2.06 1.65 2.26 1.93 1.43 2.02 3.27 2.89 2.42 2.24 1.74 1.04 1.34 1.37 0.93 1.19 1.12 0.82 0.81 0.85 0.82 0.83 0.72 1.33 0.74 0.79 1.23 0.88 1.45 1.77 2.36 1.68 1.01 1.36 1.74 1.67 1.06 1.09 0.93 1.10 0.80 0.83 1.14 0.74 0.72 0.71 0.98 0.68 0.54 0.49 0.66 0.57 1.05 0.91 0.75 0.91 0.94 1.14 1.18 1.00
0.02 0.01 0.01 0.01 0.09 0.03 0.01 0.03 0.13 0.26 0.17 0.92 0.60 0.45 1.01 1.18 1.76 1.05 1.73 2.54 2.12 2.18 2.19 1.61 1.65 1.13 0.81 0.87 0.86 1.16 2.19 2.53 2.90 2.65 2.55 2.12 2.91 2.22 1.88 1.95 1.61 1.38 1.85 2.45 2.74 2.60 2.23 3.03 3.00 2.15 1.98 1.88 1.80 1.44 0.90 0.77 1.21 1.30 1.13 1.20 0.57 1.13 0.99 1.82 1.58 0.71 1.11 1.01 1.00 1.69 1.35 1.38 0.94 1.16 0.86 0.76 0.61 0.65 0.96 0.77 0.77 1.01 0.59 0.71 0.68 0.97 0.74 0.53 0.43 0.64 0.65 0.71 0.57 0.92 0.82 1.31 1.42
0.00 0.00 0.00 0.00 0.04 0.07 0.05 0.10 0.24 0.29 0.13 0.41 0.27 0.44 0.69 1.22 1.77 1.36 1.67 1.76 1.32 1.39 1.58 1.38 1.60 1.06 0.77 0.80 0.89 0.95 1.44 1.83 3.22 3.38 2.53 3.23 3.39 3.37 3.04 2.25 2.09 1.82 2.38 2.29 3.27 4.08 3.24 2.97 2.56 2.60 2.53 1.96 1.70 1.33 0.82 1.06 1.32 1.65 1.57 1.18 0.97 0.88 1.10 1.36 1.49 1.24 0.98 1.25 1.38 0.87 0.93 1.30 0.67 0.53 0.79 0.62 0.75 0.66 0.78 0.72 0.69 0.91 0.84 0.66 0.66 0.98 0.85 0.68 0.47 0.72 0.76 0.61 0.81 0.71 0.94 0.92 1.12
0.00 0.00 0.00 0.01 0.02 0.02 0.07 0.30 0.53 0.39 0.23 0.22 0.14 0.28 0.21 1.30 1.31 0.85 1.43 0.82 0.88 0.89 1.37 1.35 1.27 1.01 0.90 0.83 0.67 0.76 1.15 1.44 2.60 3.20 3.72 3.45 3.70 3.33 3.76 2.68 2.65 2.26 2.55 2.98 2.41 2.89 2.67 2.97 3.30 3.48 3.19 2.31 1.78 1.00 1.19 1.70 3.01 2.73 1.78 1.80 1.45 1.74 0.91 0.81 1.21 0.96 1.66 1.18 1.06 0.79 0.93 0.67 0.82 0.59 0.79 0.65 0.55 0.57 0.33 0.41 0.53 0.46 0.86 1.19 1.20 0.87 0.92 0.76 0.43 1.08 0.76 0.99 0.77 0.61 0.52 0.88 1.03
0.00 0.01 0.20 0.09 0.27 0.57 0.52 1.15 1.33 0.40 0.30 0.16 0.30 0.38 0.46 0.78 1.78 1.24 0.44 0.37 0.29 0.54 1.16 1.51 1.41 0.84 0.79 0.91 1.08 0.85 1.46 1.37 1.57 2.41 3.25 3.56 2.80 3.03 2.46 2.64 3.20 2.76 3.15 2.32 2.56 2.26 1.96 2.17 3.56 2.30 2.38 2.55 2.07 2.32 2.96 2.73 2.49 2.83 2.98 1.20 1.23 2.04 1.44 1.11 0.72 0.59 0.90 0.93 1.29 1.58 1.11 0.90 0.37 0.54 1.04 0.85 0.40 0.48 0.78 0.67 0.68 0.64 0.84 0.80 0.95 1.15 1.21 1.06 0.83 1.01 0.89 0.91 1.23 0.93 0.80 1.14 1.31
0.00 0.03 0.05 0.24 0.77 1.09 0.54 1.23 0.71 0.47 0.67 0.66 0.51 0.69 1.38 0.46 0.58 0.48 0.43 0.27 0.67 0.45 0.52 0.67 1.04 1.01 0.83 0.83 1.06 1.65 1.62 1.08 1.53 1.29 1.61 1.96 2.58 2.74 3.00 2.80 3.18 2.94 3.35 2.63 2.35 2.12 1.38 2.08 2.04 2.06 1.96 3.27 2.69 2.94 3.23 2.91 2.32 2.42 2.26 1.37 1.63 1.61 1.67 0.87 0.56 0.77 0.73 0.84 1.00 1.35 1.20 0.81 0.63 0.73 0.66 0.74 0.56 0.22 0.49 0.34 0.36 0.60 0.31 0.47 0.85 0.77 0.88 1.16 1.38 1.10 1.01 0.92 1.03 1.36 1.01 0.79 0.69
0.01 0.03 0.06 0.06 0.30 0.27 0.38 0.29 0.25 0.37 0.26 0.39 0.55 0.93 0.77 0.48 0.36 0.17 0.39 0.45 0.29 0.55 0.59 0.51 0.94 0.87 0.82 0.72 1.05 1.19 1.21 1.38 1.43 1.20 1.49 1.97 2.66 3.30 2.29 2.09 2.28 2.51 2.60 2.92 2.29 1.81 1.10 1.24 1.62 1.98 2.12 3.20 4.04 3.75 3.42 2.65 2.46 1.98 1.98 1.98 1.33 0.99 0.90 0.86 0.80 1.05 0.86 0.87 1.04 1.18 1.20 1.16 1.12 0.74 0.55 0.25 0.38 0.21 0.35 0.38 0.52 0.63 0.40 0.31 0.56 0.52 0.91 0.87 1.01 0.92 0.90 1.17 0.99 1.16 1.19 0.96 0.78
0.08 0.02 0.03 0.05 0.14 0.20 0.50 0.43 0.66 0.34 0.89 0.58 0.69 0.35 1.27 0.72 4.08 0.32 0.60 0.20 0.21 0.19 0.31 0.40 0.60 1.18 1.32 1.38 1.23 1.25 1.35 2.02 2.04 1.35 1.67 2.23 2.66 2.82 2.12 2.02 2.21 2.68 3.01 1.87 2.49 2.00 0.98 1.22 0.91 1.23 2.25 1.89 2.83 4.07 3.90 2.80 2.21 1.70 1.74 2.01 2.03 1.77 1.46 0.98 0.85 1.29 1.21 1.10 1.60 0.93 1.10 0.93 0.67 0.96 1.11 1.32 0.43 0.79 0.65 0.67 0.87 0.80 0.55 0.58 0.47 0.61 0.39 0.63 0.99 0.72 1.06 0.81 1.09 0.62 0.61 0.54 0.54
0.02 0.09 0.04 0.02 0.03 0.01 0.10 0.27 0.20 0.23 0.34 0.49 0.85 0.61 0.61 1.12 0.54 0.45 0.39 0.39 0.31 0.31 0.51 0.66 1.27 1.20 1.36 1.48 1.63 1.37 1.44 2.09 1.75 1.66 2.13 2.74 2.05 2.08 1.88 1.99 2.10 1.74 2.51 2.05 1.54 1.57 1.22 1.66 1.33 1.82 1.99 2.51 3.51 3.30 4.49 3.27 2.36 2.14 2.11 2.02 1.57 1.16 0.82 1.20 1.73 1.59 1.14 1.60 1.51 1.16 1.07 1.13 0.86 0.66 1.15 1.02 0.90 0.53 0.28 0.81 1.03 0.98 0.63 0.64 0.81 0.80 0.81 1.07 1.06 1.47 1.30 1.05 0.97 0.63 0.74 0.61 0.54
0.02 0.02 0.06 0.00 0.01 0.01 0.16 0.04 0.07 0.08 0.22 0.43 0.26 0.49 0.38 0.22 0.45 0.45 0.86 0.91 0.65 0.51 0.54 0.43 1.11 1.24 1.11 1.20 1.21 1.57 1.28 1.57 1.32 1.61 2.43 2.38 2.28 0.92 0.97 1.38 1.84 1.69 1.96 1.35 1.43 1.20 1.33 1.40 1.38 2.31 2.22 2.91 2.31 2.03 2.43 3.47 2.13 2.68 1.87 2.54 1.74 1.56 0.93 0.72 0.80 0.74 0.80 0.88 1.18 1.07 0.95 1.14 0.64 0.62 0.74 0.56 1.08 0.47 0.56 0.55 0.47 0.62 0.70 0.82 1.21 1.02 0.77 0.61 0.92 1.13 1.44 1.15 1.08 0.76 0.61 0.35 0.30
0.01 0.07 0.01 0.00 0.00 0.08 0.05 0.33 0.16 0.23 0.39 0.94 0.25 0.52 0.91 0.62 2.37 0.74 1.13 1.03 1.07 0.53 0.39 0.73 0.91 0.88 1.25 0.89 1.38 1.37 1.73 1.94 1.63 1.96 2.46 2.37 1.53 0.69 0.75 0.98 1.32 1.25 1.26 1.76 1.66 1.69 1.48 1.37 0.99 1.52 2.33 2.06 2.07 2.66 3.04 3.35 2.69 2.31 2.07 1.61 1.00 0.96 0.63 0.93 1.10 1.25 1.23 1.29 1.44 0.62 1.16 0.86 0.86 0.89 0.82 0.78 0.69 0.74 1.32 0.76 0.48 0.41 0.57 0.83 0.69 0.94 0.79 0.78 0.98 0.67 0.90 1.11 0.58 0.71 0.71 0.58 0.54
0.01 0.02 0.01 0.05 0.22 0.18 0.05 0.10 0.32 0.35 0.54 0.65 0.60 0.70 0.61 0.81 1.53 0.60 0.80 0.64 0.70 0.68 0.98 1.23 1.09 1.32 1.75 1.76 1.54 1.72 1.63 1.70 1.64 1.80 2.55 2.20 1.20 0.77 1.21 1.54 1.14 1.16 1.04 1.40 2.07 1.67 0.91 0.67 1.23 1.57 1.80 1.87 1.70 2.07 2.13 2.38 2.40 2.53 2.45 1.58 0.71 0.93 1.00 1.34 1.41 1.15 1.40 1.47 1.11 1.08 1.03 1.15 1.33 0.77 0.67 0.30 0.43 0.71 0.69 0.47 0.63 0.88 1.14 0.86 0.60 0.80 0.92 1.04 0.84 0.56 0.70 0.57 0.43 0.37 0.50 0.45 0.75
0.00 0.00 0.02 0.00 0.06 0.06 0.12 0.04 0.25 0.20 0.51 0.32 1.50 0.92 1.46 1.23 1.68 0.46 0.98 0.89 0.68 0.76 0.51 0.75 1.31 1.58 1.95 2.13 1.95 1.53 1.65 1.96 1.96 2.19 2.00 1.78 1.02 1.26 1.63 2.45 2.07 1.42 1.67 1.63 1.72 1.58 1.51 1.37 1.26 1.36 2.28 2.03 1.80 2.46 2.54 2.69 2.37 2.29 1.90 1.82 1.95 1.88 1.80 1.38 0.84 0.88 0.79 1.04 0.88 1.27 1.40 0.93 0.82 0.82 0.58 0.49 0.62 0.85 0.51 0.53 0.79 0.37 0.43 0.44 0.53 0.52 0.84 1.07 0.77 0.82 0.60 0.38 0.34 0.49 0.41 0.33 0.55
0.01 0.00 0.01 0.01 0.00 0.14 0.03 0.04 0.04 0.25 0.26 0.29 0.56 1.09 1.23 1.08 0.65 0.88 0.89 0.58 0.44 0.52 0.70 1.37 2.06 2.07 2.04 1.71 2.43 2.61 2.01 1.64 1.40 1.78 2.05 1.75 1.47 1.54 1.79 2.39 3.36 2.91 2.29 2.00 1.90 2.09 2.21 1.56 0.72 0.65 1.14 1.17 1.32 1.49 1.53 1.71 2.06 0.98 1.73 1.78 2.21 1.86 1.56 1.85 1.29 0.76 0.81 0.82 1.13 1.07 1.08 1.00 1.19 1.65 0.62 0.73 0.79 0.89 0.56 0.61 0.70 0.50 0.57 0.51 0.58 0.45 0.50 0.83 0.77 0.47 0.58 0.35 0.42 0.69 0.56 0.40 0.41
0.01 0.01 0.04 0.05 0.03 0.12 0.16 0.60 0.03 0.03 0.12 0.37 0.41 1.04 1.34 0.96 0.98 0.94 1.68 1.51 1.43 1.02 1.28 1.70 2.12 2.23 2.11 2.23 2.94 2.74 1.62 1.19 0.94 1.38 1.50 1.99 2.46 2.07 1.98 2.69 4.10 3.56 3.66 2.38 1.92 1.92 2.19 1.69 1.05 1.07 1.34 1.74 1.81 1.17 1.53 1.89 0.96 1.17 1.32 1.14 1.70 1.94 1.76 1.45 1.71 2.09 1.01 0.87 0.78 0.79 0.84 1.18 0.62 1.27 1.19 0.79 0.45 0.76 0.52 0.53 0.55 0.61 0.64 0.77 0.56 0.48 0.60 0.64 0.45 0.58 0.45 0.38 0.34 0.43 0.35 0.48 0.37